Hourly Weather Bolshoe Bragino

Today, 24 July, Saturday

Time Temperature Precipitation Wind Pressure Humidity
00:00 +18°C° 0 mm 2 mps 748 mmHg 81%
01:00 +17°C° 0 mm 2 mps 748 mmHg 80%
02:00 +17°C° 0 mm 2 mps 748 mmHg 78%
03:00 +17°C° 0 mm 2 mps 748 mmHg 77%
04:00 +17°C° 0 mm 2 mps 748 mmHg 76%
05:00 +17°C° 0 mm 2 mps 748 mmHg 76%
06:00 +18°C° 0 mm 2 mps 748 mmHg 76%
07:00 +20°C° 0 mm 2 mps 748 mmHg 68%
08:00 +22°C° 0 mm 3 mps 748 mmHg 61%
09:00 +25°C° 0 mm 3 mps 748 mmHg 53%
10:00 +27°C° 0 mm 3 mps 748 mmHg 48%
11:00 +28°C° 0 mm 3 mps 748 mmHg 44%
12:00 +30°C° 0 mm 3 mps 748 mmHg 40%
13:00 +30°C° 0 mm 3 mps 748 mmHg 38%
14:00 +31°C° 0 mm 3 mps 748 mmHg 37%
15:00 +32°C° 0 mm 2 mps 747 mmHg 36%
16:00 +31°C° 0 mm 2 mps 748 mmHg 40%
17:00 +31°C° 0 mm 2 mps 748 mmHg 44%
18:00 +30°C° 0 mm 2 mps 748 mmHg 49%
19:00 +28°C° 0 mm 1 mps 748 mmHg 55%
20:00 +25°C° 0 mm 1 mps 748 mmHg 61%
21:00 +23°C° 0 mm 1 mps 748 mmHg 68%
22:00 +22°C° 0 mm 1 mps 748 mmHg 69%
23:00 +22°C° 0 mm 1 mps 748 mmHg 71%

Tomorrow, 25 July, Sunday

Time Temperature Precipitation Wind Pressure Humidity
00:00 +21°C° 0 mm 1 mps 748 mmHg 72%
01:00 +21°C° 0 mm 1 mps 748 mmHg 73%
02:00 +18°C° 0 mm 0 mps 748 mmHg 73%
03:00 +18°C° 0 mm 0 mps 748 mmHg 73%
04:00 +19°C° 0 mm 0 mps 748 mmHg 74%
05:00 +19°C° 0 mm 0 mps 748 mmHg 74%
06:00 +19°C° 0 mm 0 mps 748 mmHg 74%
07:00 +21°C° 0 mm 0 mps 748 mmHg 68%
08:00 +23°C° 0 mm 0 mps 748 mmHg 62%
09:00 +25°C° 0 mm 0 mps 748 mmHg 55%
10:00 +28°C° 0 mm 1 mps 748 mmHg 52%
11:00 +30°C° 0 mm 1 mps 748 mmHg 49%
12:00 +31°C° 0 mm 1 mps 747 mmHg 46%
13:00 +31°C° 0 mm 1 mps 747 mmHg 50%
14:00 +30°C° 0 mm 1 mps 747 mmHg 54%
15:00 +30°C° 0 mm 2 mps 747 mmHg 58%
16:00 +29°C° 0.1 mm 1 mps 747 mmHg 63%
17:00 +28°C° 0.1 mm 1 mps 747 mmHg 67%
18:00 +28°C° 0.1 mm 1 mps 747 mmHg 71%
19:00 +26°C° 0.7 mm 1 mps 746 mmHg 78%
20:00 +25°C° 0.7 mm 1 mps 746 mmHg 85%
21:00 +23°C° 0.7 mm 2 mps 746 mmHg 92%
22:00 +21°C° 0 mm 2 mps 746 mmHg 93%
23:00 +21°C° 0 mm 2 mps 746 mmHg 94%

Day after tomorrow, 26 July, Monday

Time Temperature Precipitation Wind Pressure Humidity
00:00 +21°C° 0 mm 1 mps 745 mmHg 96%
01:00 +20°C° 0 mm 2 mps 745 mmHg 96%
02:00 +20°C° 0 mm 2 mps 745 mmHg 96%
03:00 +19°C° 0 mm 2 mps 744 mmHg 97%
04:00 +19°C° 0 mm 2 mps 744 mmHg 96%
05:00 +21°C° 0 mm 1 mps 744 mmHg 95%
06:00 +21°C° 0 mm 1 mps 744 mmHg 94%
07:00 +23°C° 0.1 mm 2 mps 744 mmHg 87%
08:00 +24°C° 0.1 mm 2 mps 743 mmHg 79%
09:00 +26°C° 0.1 mm 2 mps 743 mmHg 72%
10:00 +27°C° 0.2 mm 3 mps 743 mmHg 68%
11:00 +28°C° 0.2 mm 3 mps 743 mmHg 65%
12:00 +29°C° 0.2 mm 3 mps 742 mmHg 61%
13:00 +30°C° 0.5 mm 3 mps 742 mmHg 59%
14:00 +30°C° 0.5 mm 3 mps 742 mmHg 56%
15:00 +31°C° 0.5 mm 3 mps 742 mmHg 54%
16:00 +28°C° 0.5 mm 4 mps 742 mmHg 63%
17:00 +26°C° 0.5 mm 6 mps 742 mmHg 72%
18:00 +22°C° 0.5 mm 7 mps 742 mmHg 81%
19:00 +21°C° 1.7 mm 5 mps 742 mmHg 87%
20:00 +19°C° 1.7 mm 3 mps 742 mmHg 92%
21:00 +19°C° 1.7 mm 1 mps 742 mmHg 98%
22:00 +19°C° 0.8 mm 1 mps 742 mmHg 98%
23:00 +18°C° 0.8 mm 2 mps 742 mmHg 98%

27 July, Tuesday

Time Temperature Precipitation Wind Pressure Humidity
00:00 +18°C° 0.8 mm 2 mps 743 mmHg 99%
01:00 +17°C° 0.4 mm 3 mps 743 mmHg 98%
02:00 +16°C° 0.4 mm 3 mps 743 mmHg 98%
03:00 +14°C° 0.4 mm 4 mps 744 mmHg 97%
04:00 +13°C° 0.3 mm 4 mps 745 mmHg 97%
05:00 +12°C° 0.3 mm 4 mps 745 mmHg 97%
06:00 +12°C° 0.3 mm 4 mps 746 mmHg 96%
07:00 +12°C° 0.1 mm 3 mps 747 mmHg 95%
08:00 +12°C° 0.1 mm 3 mps 747 mmHg 95%
09:00 +12°C° 0.1 mm 3 mps 747 mmHg 94%
10:00 +13°C° 0 mm 3 mps 748 mmHg 84%
11:00 +14°C° 0 mm 4 mps 748 mmHg 74%
12:00 +17°C° 0 mm 4 mps 748 mmHg 64%
13:00 +18°C° 0 mm 3 mps 748 mmHg 57%
14:00 +19°C° 0 mm 3 mps 749 mmHg 50%
15:00 +21°C° 0 mm 3 mps 749 mmHg 43%
16:00 +20°C° 0 mm 3 mps 749 mmHg 49%
17:00 +19°C° 0 mm 3 mps 749 mmHg 55%
18:00 +18°C° 0 mm 3 mps 750 mmHg 61%
19:00 +17°C° 0 mm 2 mps 750 mmHg 63%
20:00 +17°C° 0 mm 2 mps 750 mmHg 64%
21:00 +16°C° 0 mm 1 mps 750 mmHg 65%
22:00 +16°C° 0 mm 1 mps 751 mmHg 66%
23:00 +15°C° 0 mm 1 mps 751 mmHg 67%

28 July, Wednesday

Time Temperature Precipitation Wind Pressure Humidity
00:00 +15°C° 0 mm 1 mps 751 mmHg 68%
01:00 +15°C° 0 mm 1 mps 751 mmHg 69%
02:00 +14°C° 0 mm 1 mps 751 mmHg 70%
03:00 +14°C° 0 mm 1 mps 751 mmHg 70%
04:00 +13°C° 0 mm 0 mps 751 mmHg 72%
05:00 +13°C° 0 mm 0 mps 751 mmHg 73%
06:00 +13°C° 0 mm 0 mps 751 mmHg 74%
07:00 +14°C° 0 mm 0 mps 751 mmHg 71%
08:00 +15°C° 0 mm 0 mps 752 mmHg 69%
09:00 +18°C° 0 mm 1 mps 752 mmHg 66%
10:00 +19°C° 0 mm 1 mps 752 mmHg 57%
11:00 +21°C° 0 mm 1 mps 751 mmHg 49%
12:00 +21°C° 0 mm 2 mps 751 mmHg 40%
13:00 +21°C° 0 mm 2 mps 751 mmHg 42%
14:00 +21°C° 0 mm 2 mps 751 mmHg 44%
15:00 +21°C° 0 mm 2 mps 751 mmHg 46%
16:00 +21°C° 0 mm 1 mps 751 mmHg 52%
17:00 +20°C° 0 mm 1 mps 751 mmHg 58%
18:00 +19°C° 0 mm 1 mps 751 mmHg 64%
19:00 +18°C° 0 mm 1 mps 751 mmHg 65%
20:00 +16°C° 0 mm 1 mps 751 mmHg 66%
21:00 +16°C° 0 mm 1 mps 751 mmHg 66%
22:00 +15°C° 0 mm 1 mps 751 mmHg 67%
23:00 +15°C° 0 mm 1 mps 751 mmHg 68%

29 July, Thursday

Time Temperature Precipitation Wind Pressure Humidity
00:00 +14°C° 0 mm 1 mps 751 mmHg 69%
01:00 +13°C° 0 mm 1 mps 751 mmHg 73%
02:00 +12°C° 0 mm 2 mps 751 mmHg 76%
03:00 +10°C° 0 mm 2 mps 751 mmHg 80%
04:00 +12°C° 0 mm 2 mps 751 mmHg 78%
05:00 +12°C° 0 mm 1 mps 751 mmHg 77%
06:00 +13°C° 0 mm 1 mps 751 mmHg 75%
07:00 +15°C° 0 mm 2 mps 751 mmHg 70%
08:00 +16°C° 0 mm 2 mps 751 mmHg 66%
09:00 +17°C° 0 mm 2 mps 751 mmHg 61%
10:00 +19°C° 0 mm 2 mps 751 mmHg 57%
11:00 +20°C° 0 mm 3 mps 751 mmHg 52%
12:00 +22°C° 0 mm 3 mps 751 mmHg 48%
13:00 +22°C° 0.1 mm 3 mps 751 mmHg 50%
14:00 +22°C° 0.1 mm 3 mps 751 mmHg 52%
15:00 +22°C° 0.1 mm 3 mps 751 mmHg 54%
16:00 +21°C° 0.1 mm 3 mps 751 mmHg 55%
17:00 +21°C° 0.1 mm 3 mps 751 mmHg 57%
18:00 +21°C° 0.1 mm 2 mps 751 mmHg 59%
19:00 +19°C° 0.1 mm 2 mps 751 mmHg 68%
20:00 +18°C° 0.1 mm 1 mps 751 mmHg 78%
21:00 +14°C° 0.1 mm 1 mps 752 mmHg 87%
22:00 +14°C° 0 mm 1 mps 752 mmHg 88%
23:00 +13°C° 0 mm 1 mps 751 mmHg 90%
Show more